Theta_e
325 328 324 324 328 330 330 329 328 327 327 326 325 325 325 324 324 323 323 322 321 322 332 338 338 338 339 339 339 340 340 340 340 340 341 341 341 340 340 340 339 338 337 337 337 336 334 332 331 329 326 325 316 309 316 324 330 332 332 334 335 335 336 335 334 334 335 335 335 335 336 335 334 332 330 332 334 336 337 337 337 337 337 336 336
323 327 325 323 327 329 329 328 327 326 325 324 324 323 323 323 323 323 323 323 323 321 326 335 338 338 339 339 339 340 340 340 340 340 340 341 341 340 340 339 339 338 337 336 337 336 334 332 329 328 326 323 316 309 312 320 329 332 332 334 334 335 335 335 335 335 336 336 335 335 336 336 336 334 332 332 335 336 337 337 337 337 336 335 335
321 326 325 322 325 327 327 327 326 325 324 323 322 322 321 321 321 322 322 321 323 322 323 331 336 338 339 339 339 340 340 340 340 339 339 340 341 340 340 339 338 337 337 336 336 336 334 331 328 327 324 322 319 311 309 319 329 331 332 333 334 334 335 335 336 336 336 336 336 336 336 337 336 336 335 333 335 337 337 337 336 336 335 334 333
320 325 324 321 324 326 327 326 326 325 323 322 320 319 319 318 319 319 321 320 321 322 323 328 334 337 338 339 339 339 340 340 340 340 340 341 341 340 339 339 338 337 336 335 335 335 332 330 327 325 324 323 319 311 310 323 330 331 332 333 334 334 334 335 335 336 336 337 336 336 337 337 337 337 336 335 336 336 336 336 335 335 333 332 331
320 325 324 321 323 326 326 326 326 324 321 319 318 317 316 315 315 315 317 318 319 320 323 329 333 335 337 339 339 340 340 339 339 340 340 340 340 339 339 338 337 337 335 334 334 333 331 330 328 326 324 321 314 308 314 327 331 331 332 332 333 333 333 334 335 335 336 337 337 336 337 338 337 337 336 336 336 336 336 335 334 333 331 330 329
321 324 323 321 323 326 326 326 325 322 319 318 318 317 316 315 313 312 313 316 317 318 324 330 332 334 337 339 339 339 339 339 340 340 340 339 339 339 338 337 336 335 334 332 331 330 329 327 326 322 319 315 309 307 314 327 331 331 332 332 332 332 333 334 335 335 337 337 337 336 337 338 337 337 336 336 336 335 335 334 333 332 329 328 327
321 323 323 321 323 325 326 326 324 321 319 319 319 318 317 316 314 312 311 314 317 319 326 330 331 334 336 338 339 339 339 339 339 339 338 338 338 338 337 336 335 333 332 330 328 326 323 320 318 315 313 311 308 308 314 327 331 331 331 331 332 332 333 334 334 335 336 337 337 336 336 338 337 337 336 336 335 335 334 333 332 330 329 327 326
321 323 323 322 322 325 326 326 323 321 320 320 320 320 319 317 315 314 314 316 319 324 329 331 331 334 335 337 339 338 338 338 339 338 337 337 336 336 336 335 333 332 330 328 326 322 318 314 313 313 312 309 308 308 315 328 330 330 331 330 331 331 333 333 334 335 336 337 337 337 336 337 337 336 336 336 335 334 333 332 331 329 327 326 325
321 323 324 323 322 324 325 325 323 322 321 321 321 321 320 317 315 316 320 321 324 328 330 331 331 333 334 336 338 338 337 337 338 337 336 336 335 335 334 333 331 330 327 325 320 318 316 310 312 315 311 307 308 308 315 327 329 328 329 329 330 331 332 333 334 334 336 337 337 337 336 337 336 336 336 336 335 333 332 331 330 328 326 325 324
321 322 325 324 322 323 325 325 324 323 322 322 321 321 320 317 315 317 323 325 326 329 329 330 331 332 334 336 337 338 337 337 336 336 335 334 333 332 332 330 329 327 323 318 313 316 314 309 316 318 310 306 307 308 314 324 326 326 327 328 329 330 332 333 333 334 336 336 337 337 336 337 336 336 337 336 335 333 332 331 330 328 326 324 323
321 322 326 326 322 323 325 325 324 323 322 322 321 321 320 317 314 315 321 324 326 330 329 330 331 330 334 337 337 337 336 336 335 335 334 333 332 330 329 326 323 319 314 311 311 314 311 309 318 317 309 307 307 309 314 320 323 324 325 326 328 330 331 332 333 334 336 336 336 337 336 336 337 337 337 336 334 333 332 331 329 328 326 324 322
322 323 327 327 323 323 325 326 325 324 323 321 322 322 320 317 314 314 318 323 326 329 330 331 332 332 334 337 337 337 336 335 335 334 332 330 328 326 323 319 314 310 308 309 311 312 309 308 313 311 307 307 306 309 313 316 319 321 323 324 327 329 330 332 332 333 335 336 336 336 336 336 337 337 337 336 335 334 333 331 330 327 325 323 320
322 324 328 327 323 324 326 326 325 324 323 322 321 322 320 316 314 316 318 321 324 327 329 331 333 333 335 335 336 336 335 334 332 330 326 323 320 317 314 312 310 310 310 310 311 311 309 307 308 307 307 307 306 309 313 316 318 321 321 322 326 328 330 331 332 332 333 335 335 336 336 336 337 337 337 336 335 334 333 332 331 326 323 322 319
322 325 327 326 324 324 326 326 326 325 324 322 322 322 321 316 314 316 319 321 323 326 328 330 332 333 334 335 335 334 332 329 325 322 318 316 314 312 312 312 312 312 312 311 311 309 307 307 307 307 307 308 306 308 315 317 320 324 323 323 326 329 330 331 331 332 332 334 335 336 336 336 337 337 336 335 334 333 332 332 330 326 323 321 319
322 324 326 327 325 324 326 327 326 326 325 323 322 322 321 318 314 315 318 321 323 324 325 327 329 330 332 332 330 327 323 320 317 316 314 314 313 314 314 314 314 313 312 311 310 308 307 308 307 308 308 308 306 308 316 319 320 324 325 326 328 330 330 330 331 333 334 334 334 335 336 336 336 337 336 335 334 333 332 331 328 326 324 321 319
322 324 326 327 326 324 326 327 326 327 326 324 322 322 322 320 316 315 315 317 319 322 324 325 326 326 327 324 321 317 315 315 314 315 315 316 317 318 318 317 316 314 312 310 309 309 309 308 308 309 309 308 306 307 315 320 319 323 326 326 328 330 330 330 331 333 334 335 335 334 336 336 336 336 335 335 334 333 332 330 327 326 323 320 317
323 324 325 326 329 327 325 327 327 327 327 326 324 322 323 322 319 317 315 313 313 315 317 320 320 320 319 317 315 314 315 315 316 317 319 321 321 321 321 320 318 314 311 310 310 309 309 309 310 311 309 307 306 306 313 319 319 321 325 326 328 330 330 330 330 332 333 335 336 335 335 336 336 335 335 335 335 333 332 330 328 326 322 318 317
322 324 325 326 330 331 327 326 326 327 328 326 325 324 323 323 322 320 318 317 315 314 314 315 315 316 316 315 316 317 318 319 320 322 323 324 324 324 323 321 320 316 312 311 311 311 310 312 313 311 308 307 307 306 310 315 316 319 323 325 328 330 330 330 329 330 332 334 336 335 335 335 336 335 335 335 335 334 333 332 330 328 321 317 318
323 323 326 326 330 334 333 328 325 326 330 329 326 325 324 324 323 323 322 320 319 319 318 319 319 319 320 320 321 322 323 324 324 325 325 326 326 326 325 323 321 318 314 312 312 313 313 314 313 309 306 307 307 305 307 311 313 316 320 323 326 329 329 329 330 329 330 333 335 336 335 335 335 335 335 335 335 334 334 333 331 329 324 319 318
324 323 325 325 328 335 336 334 328 324 328 331 330 327 325 324 324 324 324 323 322 322 322 322 323 323 324 324 324 325 325 326 326 327 327 328 327 327 327 325 323 321 317 314 314 314 315 314 311 308 306 306 306 305 306 310 312 314 318 320 323 327 328 329 330 329 330 332 333 335 335 335 334 334 335 335 335 335 333 333 332 330 327 322 319
327 325 324 325 327 332 335 336 333 327 326 330 332 331 329 326 325 325 325 325 324 323 323 324 324 324 325 325 326 327 327 328 328 328 328 328 328 328 328 327 325 323 320 316 315 315 316 315 311 309 309 308 307 306 306 309 312 313 315 317 319 322 326 327 329 330 331 332 332 333 334 334 334 334 335 336 336 334 332 332 332 331 328 324 320
332 328 326 325 326 329 332 335 334 331 329 330 331 332 332 330 328 328 327 327 326 326 325 325 325 326 326 327 328 328 329 330 329 329 330 329 329 329 328 329 328 325 322 319 316 316 317 316 312 312 312 311 310 307 306 309 313 313 314 316 316 317 321 323 326 330 331 331 332 333 333 333 334 334 335 335 335 333 331 331 331 330 329 326 322
335 333 329 327 326 327 330 332 333 332 333 334 333 332 333 332 331 331 330 329 328 328 327 327 327 328 328 329 329 329 331 333 332 331 330 331 330 330 329 329 329 328 325 321 318 316 317 318 314 314 315 314 312 310 307 310 313 312 312 314 315 315 316 317 323 330 331 330 332 333 333 333 333 333 334 335 335 334 331 331 331 330 329 328 325
332 335 334 332 330 329 329 329 331 333 334 335 334 334 335 334 332 332 333 331 330 329 329 329 329 330 330 330 331 330 331 333 334 332 331 332 332 332 331 330 329 329 327 324 321 317 317 318 317 316 317 316 315 314 311 311 312 312 311 312 313 314 315 315 319 327 330 330 331 332 332 332 332 332 332 333 334 334 332 332 332 330 330 329 328
328 331 333 334 334 333 331 330 331 333 334 334 334 335 335 336 334 332 334 334 333 332 331 331 331 331 331 332 332 332 331 332 333 333 332 332 333 333 333 332 330 329 329 327 324 320 317 318 319 317 318 319 317 315 315 313 313 312 312 311 311 312 313 314 317 324 328 329 330 331 331 331 331 331 331 332 334 334 333 333 331 331 330 330 330
324 325 327 330 333 335 333 331 330 331 332 333 335 335 335 336 335 334 335 334 334 334 334 333 333 333 333 333 333 333 333 333 333 333 333 333 334 334 333 332 331 330 329 329 327 324 320 318 319 319 320 321 319 317 316 315 314 313 313 312 311 310 311 312 314 319 325 328 330 330 330 330 330 330 330 331 333 334 334 332 331 331 331 331 329
323 322 323 325 328 331 332 332 330 329 329 330 333 334 335 335 334 335 336 335 334 334 334 335 334 334 334 334 334 334 333 334 334 334 334 334 335 334 333 333 333 331 330 329 329 328 324 321 321 321 321 321 320 318 318 317 316 315 315 314 314 313 312 311 311 313 318 324 328 329 329 328 328 328 328 329 331 332 334 333 332 331 331 330 327
323 322 321 321 321 323 326 328 329 329 328 329 330 332 333 334 333 335 337 336 335 336 335 335 336 335 334 334 334 334 334 334 334 334 334 334 335 335 334 334 333 332 331 329 330 330 329 326 325 323 322 321 320 319 319 319 319 318 317 316 315 315 314 313 312 311 313 317 322 326 327 326 324 324 324 326 330 332 332 333 332 331 330 328 326
322 321 321 319 317 319 320 321 322 323 324 326 327 328 330 331 333 333 335 335 335 336 336 336 337 337 336 336 335 335 334 334 334 334 334 334 335 335 335 334 333 332 332 330 330 331 330 330 328 326 324 321 320 320 320 319 320 320 320 319 318 317 316 315 314 313 313 313 315 319 322 323 321 319 319 321 326 331 332 333 332 331 330 329 328
318 320 320 319 318 318 317 317 317 319 321 323 322 324 325 326 328 330 332 334 334 335 336 336 337 337 337 337 336 336 335 335 335 335 334 334 335 335 335 335 334 333 332 331 331 331 331 331 330 329 327 325 322 320 320 320 320 320 320 320 320 319 318 317 316 315 314 314 313 314 315 316 316 314 314 315 318 325 330 332 331 331 330 329 328
315 317 317 318 319 318 317 317 317 317 319 319 318 319 321 320 322 325 328 329 329 331 334 335 335 336 337 337 337 336 336 336 335 335 335 334 335 335 335 335 334 334 333 332 332 331 330 332 332 331 330 329 327 323 321 320 320 320 320 321 321 321 320 320 319 319 318 317 315 315 313 313 313 312 311 312 312 316 324 329 331 331 330 329 329
313 313 314 316 318 317 317 318 318 318 318 317 316 317 317 317 318 321 322 322 321 324 328 331 333 334 335 336 336 336 336 336 336 335 335 335 335 335 335 335 334 333 333 332 332 332 330 331 333 332 332 332 330 328 326 322 320 320 320 321 321 321 321 321 321 321 321 320 319 318 317 315 314 313 313 312 312 312 318 326 329 331 330 329 329
310 310 311 313 314 315 317 318 318 319 319 317 317 316 315 315 317 318 318 318 318 318 320 324 328 332 334 334 334 336 336 336 336 336 335 336 335 335 335 335 334 332 332 331 332 332 331 329 330 331 332 332 332 332 331 328 323 320 321 322 322 321 321 321 322 322 322 322 322 322 321 320 317 316 315 314 314 312 314 320 325 328 330 330 329
308 309 309 310 311 312 315 317 318 318 318 318 318 316 315 315 317 317 316 316 317 318 317 318 320 323 328 332 333 334 335 336 336 336 336 336 336 336 335 335 334 333 331 331 332 332 332 329 329 330 330 330 332 334 333 332 329 324 323 324 324 324 323 323 323 322 322 322 321 321 322 322 321 320 319 317 316 315 314 315 320 324 327 329 330
308 308 308 308 308 309 311 313 316 318 318 317 317 315 314 315 316 316 316 315 314 315 316 318 321 319 320 327 331 329 330 332 333 334 335 335 335 336 335 335 335 334 333 332 332 333 332 331 331 329 327 327 330 332 334 334 334 329 327 327 327 328 327 325 325 325 326 325 324 323 321 321 321 321 321 321 320 318 316 315 316 319 323 327 329
308 308 308 307 308 308 308 310 312 315 317 316 315 315 314 314 315 315 315 314 312 312 312 315 321 324 323 325 327 325 324 332 335 334 334 335 335 334 334 334 334 335 334 333 334 333 332 330 329 328 327 327 327 328 331 333 334 333 331 331 330 331 330 328 328 328 328 328 328 327 326 324 322 321 321 322 323 321 319 317 316 317 319 322 325
307 307 307 307 307 307 307 308 309 311 313 314 314 314 313 313 313 315 315 314 313 311 310 311 314 320 324 323 322 319 319 331 339 336 334 334 334 334 334 333 334 335 335 334 334 333 333 329 327 328 329 330 329 327 327 330 333 335 334 332 332 332 331 331 330 329 329 329 329 329 329 329 328 326 323 322 323 323 322 320 319 317 317 318 319
306 306 306 306 306 307 307 307 308 308 309 311 311 312 311 312 313 315 315 315 314 312 310 311 312 315 318 317 315 312 311 319 331 337 337 334 333 334 334 334 333 334 334 335 335 334 334 331 329 330 331 331 332 330 327 326 328 332 334 334 332 332 332 331 330 329 329 329 329 328 329 329 329 329 328 326 323 322 321 322 321 320 319 318 318
306 306 306 306 306 306 306 306 307 307 308 308 309 309 310 311 313 314 315 314 314 313 311 311 313 315 316 315 313 311 310 309 315 324 332 334 333 333 332 333 334 333 333 332 333 334 334 333 332 332 333 333 333 331 329 327 326 329 332 332 332 333 332 331 331 330 329 329 327 325 326 327 327 328 330 329 327 323 322 322 323 323 322 321 319
306 306 306 306 306 306 306 306 306 306 307 307 307 308 309 310 311 312 313 314 313 311 311 311 313 314 314 314 313 312 311 309 308 310 319 328 330 332 332 331 331 332 330 330 331 332 332 333 333 333 334 333 332 331 331 329 328 329 329 328 329 332 330 328 327 327 327 327 325 324 326 325 324 327 329 329 329 327 325 324 323 324 324 324 323
305 305 305 306 305 306 306 306 306 306 306 306 306 307 308 308 309 310 311 312 311 310 310 310 311 312 313 313 312 311 310 310 309 307 316 329 333 335 335 334 332 331 330 330 333 333 331 332 333 332 331 331 330 329 328 328 327 328 329 328 329 330 328 327 326 324 327 326 324 325 325 323 324 326 327 328 328 328 327 327 326 326 325 325 325
304 305 305 305 305 305 305 305 305 305 306 305 306 306 306 307 307 308 308 309 309 309 309 309 309 309 310 310 309 309 310 310 310 307 314 329 337 337 336 337 337 335 333 331 333 333 332 333 332 331 330 329 329 326 325 328 328 328 330 331 330 328 325 326 326 327 329 328 326 325 321 321 325 325 324 324 324 324 324 325 326 327 326 326 325
304 304 304 304 304 304 304 305 304 305 305 305 306 306 306 306 306 307 307 307 307 307 307 307 307 307 308 309 308 308 309 310 311 309 308 317 329 334 334 334 335 336 337 334 332 332 333 334 333 331 330 329 328 325 323 326 327 327 329 329 327 326 325 325 325 328 330 329 329 325 320 321 323 322 321 322 322 323 323 323 324 325 326 325 325
303 303 303 304 304 304 304 304 304 304 305 305 305 305 305 305 306 305 306 306 306 306 307 307 308 308 307 308 308 307 308 310 311 312 309 308 317 328 331 330 331 332 335 336 334 333 333 333 332 330 329 329 327 324 322 323 325 325 326 326 326 326 326 325 325 326 326 324 323 319 317 320 322 323 324 325 325 324 322 322 322 323 324 324 325
303 303 303 303 303 304 304 304 304 304 304 305 305 305 305 305 305 305 305 305 306 306 307 308 309 308 307 307 307 308 308 311 313 312 311 308 311 324 332 333 332 330 331 333 333 333 332 331 329 327 328 328 325 324 323 323 324 324 324 325 325 325 325 324 323 322 320 318 316 315 316 318 321 324 325 324 324 323 321 320 319 317 316 319 323
302 302 303 303 303 304 304 304 304 304 304 305 305 305 306 306 306 305 305 305 306 306 307 308 308 308 307 306 306 308 308 311 313 312 311 309 310 321 331 333 333 331 330 331 331 332 332 329 326 325 325 324 323 324 324 323 323 323 324 324 323 324 323 322 322 322 321 319 318 318 320 321 322 323 323 323 323 322 320 317 313 310 308 311 318
302 302 303 303 303 303 303 304 304 304 305 305 305 305 306 306 306 306 306 306 306 307 307 308 307 307 308 306 305 306 307 308 310 311 312 311 310 319 328 330 331 331 331 331 331 331 329 326 323 323 324 322 322 323 324 323 322 321 322 323 322 322 320 319 320 321 322 322 321 321 322 323 324 324 324 323 321 317 313 309 306 305 306 307 310
302 302 302 302 302 302 303 303 303 304 304 304 304 305 305 305 306 307 307 306 306 306 307 307 307 307 306 306 306 307 306 306 308 310 312 311 310 317 326 330 330 330 331 331 331 329 327 327 327 329 327 322 320 321 322 321 319 318 319 319 319 319 319 319 319 320 321 322 322 322 322 323 324 324 323 320 316 313 309 306 304 305 307 309 309
301 302 302 302 302 302 302 303 303 303 303 304 304 304 304 304 305 306 307 307 307 306 307 307 307 307 306 306 307 307 307 307 308 309 311 312 310 312 320 328 330 330 330 330 329 326 325 328 331 331 324 318 317 317 317 317 315 315 316 316 317 318 318 318 318 319 320 320 320 320 321 322 322 322 320 317 312 309 307 305 305 306 309 313 315
302 302 303 303 303 303 303 303 303 304 304 304 304 304 304 304 304 305 306 307 307 306 306 307 307 307 307 307 306 307 307 308 308 308 310 312 311 311 315 322 328 329 329 328 327 324 322 323 326 325 319 314 313 312 311 310 311 314 313 313 315 316 317 318 320 320 318 319 320 319 319 320 320 319 316 311 306 304 304 304 304 307 310 313 315
302 302 303 303 304 304 304 304 304 304 305 304 304 303 303 303 304 304 304 306 306 306 306 306 307 307 307 307 306 306 307 307 307 307 309 311 311 310 311 316 323 326 327 325 324 322 319 318 320 320 317 313 311 309 307 306 308 312 312 310 309 309 311 315 319 320 318 319 320 319 317 314 315 314 309 305 303 302 304 305 306 309 310 311 310
Wind_Speed
24 24 22 25 27 26 25 24 23 22 22 22 22 21 19 18 16 15 14 13 12 12 13 14 14 15 15 14 14 14 14 14 14 14 15 15 14 13 12 10 7 7 8 7 7 5 4 5 6 7 9 9 13 9 16 13 14 17 16 16 15 15 14 15 16 16 16 16 16 17 17 16 16 17 17 18 19 20 21 19 19 19 18 17 15
24 25 23 26 28 27 25 24 23 22 22 22 22 21 20 19 17 16 15 14 13 13 12 13 14 14 14 14 13 13 13 13 14 14 14 13 13 12 11 8 7 7 7 7 6 4 3 4 5 6 8 8 11 9 12 14 15 17 16 15 14 13 13 14 14 13 13 13 14 15 16 16 16 16 17 17 18 19 20 18 17 16 15 14 12
23 25 24 26 28 27 26 24 23 22 21 21 21 20 20 19 18 17 16 15 14 14 13 13 13 13 13 14 14 13 13 13 13 13 13 13 13 11 9 8 7 6 6 6 5 3 2 3 5 6 7 7 10 9 12 18 16 17 16 15 13 12 12 12 12 12 12 13 13 15 16 16 16 16 17 17 18 18 18 17 15 14 12 10 9
23 24 25 26 28 27 26 24 23 22 21 21 20 20 19 18 18 18 17 16 15 15 15 14 13 13 14 14 14 13 13 13 13 13 13 13 13 10 8 7 6 6 6 5 4 1 2 4 6 6 7 9 11 6 14 21 18 17 16 14 13 12 11 11 11 12 13 13 14 15 15 16 16 17 17 18 18 17 17 15 13 11 9 8 7
23 24 25 26 28 27 26 24 23 22 21 21 20 19 19 18 17 18 18 18 17 17 16 15 14 13 13 15 14 14 14 14 14 14 14 13 12 10 8 7 6 5 5 3 2 2 5 6 8 8 10 11 9 1 17 22 18 17 16 14 12 11 10 11 11 13 13 13 14 15 15 15 16 17 18 18 17 17 15 12 10 9 7 6 5
24 24 24 27 29 28 27 25 23 22 21 20 19 18 18 18 17 18 18 19 19 19 17 16 15 14 13 15 15 15 14 14 14 14 14 13 11 10 8 7 6 4 2 1 2 4 6 8 10 12 12 10 4 5 19 21 17 17 16 14 11 10 10 11 12 13 13 12 13 15 16 15 16 17 18 17 16 15 12 11 9 7 6 6 5
24 24 24 27 29 29 28 25 24 23 22 20 19 18 17 16 17 18 18 20 20 20 18 17 16 15 14 15 16 15 14 14 14 14 13 11 11 10 9 7 6 3 2 3 5 7 9 10 11 12 10 5 3 10 20 21 18 17 15 12 10 10 10 11 12 13 12 11 13 15 16 15 16 17 16 16 14 12 10 9 8 6 5 5 7
25 24 24 27 28 28 28 26 25 23 22 20 19 18 16 16 16 17 18 20 20 20 19 18 17 16 15 15 15 15 14 14 14 13 12 11 10 10 8 7 5 3 4 6 8 10 10 10 10 8 5 2 9 13 21 22 19 16 13 11 11 11 11 11 12 13 11 10 12 15 15 15 16 17 15 14 12 10 8 7 5 4 5 6 8
26 25 24 26 27 28 28 27 26 24 22 20 19 18 17 16 17 17 18 20 21 21 20 19 19 18 17 16 15 15 15 14 14 13 12 11 10 9 7 6 5 5 6 8 9 9 9 9 7 3 3 5 12 15 20 22 19 15 13 12 13 12 11 11 12 12 11 10 12 13 15 15 15 16 14 13 10 8 6 4 2 3 6 8 9
27 25 23 25 26 28 28 28 26 24 23 21 19 18 17 16 17 18 19 21 22 22 22 21 20 19 18 17 17 16 15 14 14 13 12 10 9 8 6 6 7 7 9 10 10 9 9 7 5 1 4 6 12 15 20 22 18 15 13 13 14 13 12 11 11 12 10 10 11 13 14 14 15 15 13 12 9 6 3 2 2 4 6 8 9
29 26 23 24 26 28 28 28 26 25 23 21 20 18 17 16 17 19 19 22 23 23 22 21 21 20 19 18 18 16 15 14 13 12 11 9 8 7 7 8 10 10 11 11 10 10 8 6 5 3 2 7 13 15 19 21 18 15 14 14 13 13 12 12 11 11 9 9 10 12 13 13 14 14 12 10 7 4 2 0 3 5 7 8 9
30 27 23 24 25 28 28 27 27 25 23 22 20 18 17 16 17 19 20 22 23 22 22 21 21 21 20 19 18 16 15 13 12 11 10 9 8 8 9 11 12 12 11 10 10 9 7 6 6 5 0 7 13 16 18 19 18 15 15 14 13 14 13 12 11 10 9 9 10 11 13 13 13 13 11 8 5 3 2 3 5 7 8 9 9
31 27 23 24 25 28 27 27 27 25 23 22 20 18 17 16 18 19 20 21 22 21 22 21 20 20 20 18 17 15 14 13 12 11 10 9 9 10 11 12 11 11 9 8 9 8 6 5 6 5 2 7 14 16 18 19 17 16 16 15 14 14 13 12 11 10 10 9 10 11 13 12 12 11 9 7 6 5 3 4 7 9 10 10 8
32 27 24 24 25 27 28 27 26 25 24 22 21 18 16 16 18 19 20 22 21 21 22 21 21 20 19 18 16 15 14 13 12 11 10 10 10 10 10 10 10 10 8 8 8 6 4 4 5 5 2 7 14 17 19 20 17 16 16 15 14 14 13 12 10 10 10 10 11 11 12 11 10 10 9 7 6 5 4 5 7 9 11 9 6
31 27 25 23 24 27 28 27 27 25 24 23 21 19 17 16 17 19 20 21 21 22 22 21 21 20 19 17 16 15 14 14 13 12 11 10 9 9 8 7 7 8 6 6 6 4 3 4 4 4 2 7 15 17 20 20 17 16 15 15 15 14 13 12 10 10 9 8 10 12 12 12 11 10 8 6 6 6 5 5 7 9 10 7 4
29 25 25 24 24 27 28 27 27 26 25 23 22 20 18 17 17 19 20 20 21 21 21 21 21 20 19 18 16 15 15 14 13 12 11 10 9 8 7 6 5 5 4 4 4 3 3 3 4 3 2 7 14 18 21 21 17 16 15 16 16 15 13 12 11 10 9 7 8 11 12 13 13 10 7 5 7 8 6 6 6 9 9 5 3
29 25 25 25 23 25 28 28 27 26 25 24 22 21 19 18 18 18 19 20 20 21 21 21 20 20 19 18 17 16 15 14 13 12 11 10 9 8 6 5 4 3 3 3 3 3 3 4 4 2 1 6 13 17 21 21 18 16 16 16 17 16 13 12 10 10 10 8 8 11 11 12 12 9 6 6 8 9 9 9 8 9 7 5 3
29 27 25 25 23 23 26 28 28 27 26 25 24 22 21 20 19 18 19 19 20 20 20 20 20 19 18 17 16 15 15 14 13 12 11 10 9 8 6 4 3 2 3 3 3 3 4 3 3 2 1 5 11 16 20 21 18 17 17 17 18 17 15 13 10 9 10 9 8 10 12 12 11 9 7 7 9 10 11 12 11 8 6 6 4
29 28 26 26 25 22 23 26 28 28 26 25 25 24 23 22 21 20 19 20 20 20 20 20 20 19 18 17 16 16 15 14 14 13 12 11 10 8 7 5 3 3 4 3 3 3 3 3 3 1 2 4 8 14 19 20 17 17 18 17 18 18 16 12 10 10 9 8 9 9 12 12 9 7 8 8 10 13 13 13 13 10 7 8 6
29 29 28 28 26 23 22 24 27 29 27 25 24 25 24 24 23 22 21 20 21 21 21 21 20 20 19 18 17 17 16 16 15 14 13 12 11 10 8 6 5 3 4 4 3 3 3 3 2 2 3 5 6 10 17 19 15 16 18 17 17 18 17 12 11 10 8 8 10 9 11 13 10 8 8 8 9 11 11 12 14 11 9 9 9
29 30 30 30 28 27 24 23 25 28 29 26 24 24 25 25 25 24 23 22 22 22 22 22 21 21 20 20 19 18 18 18 17 16 15 14 13 11 10 8 6 5 4 4 4 4 4 3 3 3 4 4 5 9 16 18 14 15 17 16 17 18 17 15 12 10 9 9 9 10 12 14 13 11 9 8 11 10 7 11 13 11 10 9 8
28 30 32 31 31 30 27 25 24 26 28 27 25 25 25 27 27 26 25 25 24 23 23 23 22 22 21 21 20 20 19 18 18 18 17 16 15 13 12 10 9 7 6 5 5 5 4 4 3 3 3 4 5 8 15 16 13 15 17 15 16 17 17 17 14 10 12 13 9 10 12 13 12 11 10 9 10 10 9 11 11 9 10 9 7
27 29 31 31 32 31 29 28 26 26 26 26 25 26 26 27 28 27 27 27 27 26 26 25 24 24 23 23 22 22 20 18 18 19 18 17 16 15 14 13 11 10 8 7 6 6 5 5 4 4 4 5 6 7 13 15 13 13 15 14 15 18 17 18 15 11 12 15 12 12 12 10 10 9 10 9 10 11 12 13 11 10 10 9 8
26 27 29 30 32 32 32 31 29 27 27 27 26 26 26 27 29 29 27 27 28 28 28 27 26 25 25 24 24 24 22 19 18 19 19 18 18 17 16 15 14 13 11 9 8 8 7 7 6 6 5 5 6 7 10 13 13 12 13 13 14 16 17 18 17 15 14 15 14 13 12 11 9 9 10 10 11 11 13 14 14 12 10 11 11
24 26 27 28 29 31 33 33 31 29 28 28 27 27 27 27 29 30 27 27 27 28 28 28 28 27 26 26 25 25 24 23 21 20 20 20 19 19 19 18 18 16 14 12 10 10 9 9 8 8 8 6 6 7 8 10 11 12 12 13 13 14 15 17 18 18 18 17 15 14 13 12 11 10 9 10 11 12 14 15 15 13 12 13 15
24 24 24 25 26 28 30 31 32 32 32 30 28 28 29 29 29 29 29 30 29 29 29 29 29 29 28 27 26 26 25 24 23 22 22 22 20 19 21 21 20 19 17 15 13 12 11 11 10 10 9 8 8 8 8 8 9 10 11 12 13 13 14 15 17 18 19 18 17 15 14 13 12 11 10 10 11 13 15 16 15 16 16 16 15
23 23 23 23 23 24 26 28 29 31 32 32 31 30 31 32 32 30 29 31 31 31 31 30 30 30 30 30 29 27 26 25 24 23 23 23 21 20 20 19 18 19 19 17 15 14 13 12 12 11 10 10 9 9 9 8 8 9 10 11 11 12 13 15 16 18 19 19 19 17 16 14 13 13 12 11 12 13 15 17 17 18 17 15 13
23 22 22 22 21 22 23 24 26 27 28 30 32 32 33 34 34 32 31 32 32 32 33 32 32 32 31 31 31 30 28 27 26 25 23 23 23 22 21 18 17 18 19 19 16 15 14 13 13 13 12 12 12 12 11 10 9 9 10 10 10 11 11 13 14 17 18 20 20 19 18 17 16 15 14 13 12 13 15 17 17 16 15 13 12
21 21 23 21 19 21 22 22 23 24 25 27 29 31 32 33 34 34 33 34 35 34 33 33 33 34 33 33 33 31 30 29 28 27 26 25 24 23 22 21 19 18 19 20 17 15 15 14 14 14 14 14 14 13 13 13 12 11 10 10 10 10 10 11 12 14 16 19 20 21 20 19 19 17 16 15 13 14 15 16 16 16 16 14 13
19 21 24 22 20 21 21 21 22 24 26 27 27 29 30 31 32 34 33 34 35 36 35 35 35 35 34 35 35 33 32 31 30 29 28 27 26 24 23 23 21 19 20 21 17 16 16 15 15 16 15 16 15 15 15 15 15 14 13 12 12 11 11 11 11 11 13 15 17 20 21 21 21 20 19 18 16 15 16 17 17 18 17 15 14
20 23 24 24 24 24 22 23 24 25 27 27 27 28 29 30 30 31 32 31 31 33 35 35 36 37 36 36 36 35 35 34 32 31 30 29 27 26 24 24 23 22 23 22 19 18 18 16 16 17 16 16 16 16 17 17 17 16 15 15 15 14 13 13 13 12 12 12 13 16 18 20 21 21 21 20 18 17 16 18 18 19 19 16 16
23 24 25 27 27 25 25 25 26 27 28 28 28 29 29 29 30 30 31 30 28 29 32 32 33 35 37 38 38 37 38 37 35 34 33 32 30 28 26 26 26 25 25 24 21 20 19 17 16 18 17 17 16 16 18 18 18 18 17 17 17 17 16 15 15 15 15 14 13 14 15 17 18 20 21 20 20 18 17 18 19 19 19 18 18
24 24 26 28 28 27 28 29 29 30 30 29 29 30 29 29 30 30 30 29 28 28 29 31 32 32 34 38 39 39 39 38 37 37 36 35 34 32 30 28 27 27 27 25 22 21 22 21 19 19 19 20 20 18 19 21 20 20 19 18 19 19 17 18 18 17 17 17 16 16 16 16 16 17 19 20 20 20 19 19 20 20 20 19 19
27 27 28 27 26 28 30 31 32 32 31 30 30 30 30 31 31 31 30 30 30 29 29 30 31 32 31 33 35 37 39 39 38 36 35 35 35 34 32 30 29 29 29 27 24 24 25 25 22 21 22 24 24 22 23 24 23 23 22 21 20 20 19 20 20 19 19 19 19 19 19 18 18 18 19 19 20 20 21 20 21 22 22 22 21
29 30 30 28 27 28 28 30 32 33 32 32 32 32 31 32 32 32 32 32 32 31 31 30 30 31 31 30 31 33 35 37 38 38 38 37 35 35 35 34 31 30 31 29 26 26 25 24 22 23 25 26 25 26 26 26 24 25 25 23 22 21 21 21 21 21 21 21 21 21 20 20 20 20 20 20 21 21 22 22 22 22 23 24 24
32 33 33 32 31 29 28 29 31 33 33 33 33 33 33 33 34 34 34 34 33 33 33 33 30 28 28 29 31 32 32 35 38 39 41 41 37 36 36 36 33 30 30 29 28 28 27 27 25 25 26 26 26 27 29 27 25 27 27 25 23 23 24 24 24 23 23 23 24 23 22 22 21 21 22 21 22 22 22 23 24 24 24 25 25
32 33 34 34 34 33 31 31 31 32 33 34 34 35 35 35 36 36 36 36 35 35 34 35 34 31 28 30 34 34 33 37 40 38 39 42 41 38 35 35 35 33 31 29 31 33 32 31 29 27 26 25 25 27 29 29 26 27 27 25 24 25 26 26 26 25 25 25 26 25 24 23 23 23 23 23 23 23 22 22 23 25 26 27 26
27 28 29 31 32 34 34 33 33 33 33 34 35 36 36 37 38 38 39 38 38 37 36 38 38 37 34 34 37 37 34 37 41 41 39 40 41 42 40 38 36 36 34 32 35 36 34 33 31 30 30 27 26 26 28 31 30 28 27 25 25 29 30 28 27 26 26 28 29 29 28 26 25 24 23 24 25 24 24 24 24 25 27 28 28
26 26 27 28 29 30 32 33 34 35 35 35 36 37 38 40 41 41 41 41 41 40 39 41 41 39 39 39 38 36 35 35 39 43 43 42 41 42 43 43 40 39 39 38 39 38 36 34 31 32 34 33 30 26 25 28 30 29 28 27 28 31 32 30 29 29 29 32 32 32 32 31 30 27 24 25 26 25 25 26 26 26 27 28 29
30 30 31 31 31 31 31 32 32 33 35 36 38 40 41 42 43 43 45 45 44 43 43 43 42 42 42 41 40 37 36 36 36 39 43 44 43 42 42 43 44 44 44 42 41 39 36 35 33 33 34 34 31 28 25 25 25 26 27 30 31 32 32 32 31 32 33 33 33 33 33 33 31 29 27 26 27 27 27 27 28 28 29 29 29
35 34 34 35 35 34 34 34 33 32 33 35 38 41 43 45 45 46 47 47 47 47 47 46 44 44 45 43 41 39 38 37 37 36 38 41 42 43 41 38 40 45 45 41 41 39 36 36 35 33 33 33 32 30 29 29 26 25 26 28 31 34 34 31 31 32 34 34 33 32 32 31 30 29 28 28 28 29 29 29 29 30 30 30 30
37 36 37 37 36 36 37 37 36 35 35 35 36 40 44 46 47 48 49 49 49 50 50 49 48 47 47 46 44 42 41 40 39 38 39 40 40 40 42 39 36 42 44 43 44 41 39 38 36 35 34 33 33 30 28 29 28 27 28 26 26 31 33 31 31 32 30 30 29 29 31 32 31 30 28 27 28 27 28 30 31 31 31 32 32
37 37 38 38 38 38 39 38 38 38 38 38 37 39 41 42 44 46 48 49 49 50 51 51 52 51 50 50 48 46 46 44 43 41 40 43 44 42 44 44 40 41 42 43 45 44 42 41 39 38 36 34 33 30 29 32 30 29 30 29 27 26 27 28 31 33 32 31 33 36 36 33 31 29 27 26 26 26 27 30 32 32 32 32 33
37 38 38 39 39 39 39 39 39 39 39 39 39 38 39 40 41 42 44 46 48 49 50 51 52 51 51 53 53 51 50 49 46 45 42 44 47 46 44 46 45 45 44 44 45 45 44 43 42 39 37 34 32 31 32 32 31 29 27 26 25 21 21 21 21 27 33 35 37 38 35 32 29 27 26 27 27 26 27 28 30 31 30 30 30
37 37 37 37 37 38 38 38 38 38 38 38 37 37 38 40 41 43 44 46 49 50 51 52 51 50 52 53 53 53 53 52 49 47 45 44 46 46 43 43 45 47 49 49 48 47 45 45 43 39 37 36 33 31 33 31 29 29 26 23 20 18 19 18 15 19 24 25 26 27 27 27 27 26 25 26 25 24 23 23 25 26 27 26 25
34 34 35 35 35 35 35 35 36 36 36 36 35 35 37 39 41 43 46 47 50 52 52 53 53 52 53 52 51 53 55 54 51 48 46 45 46 47 46 45 45 47 48 49 48 47 45 45 44 40 38 38 34 30 30 29 27 28 30 27 22 19 17 15 13 14 16 18 19 19 21 23 24 24 23 23 23 23 23 24 25 25 26 25 23
31 32 33 33 34 34 34 35 35 35 36 35 33 34 36 38 40 42 45 47 49 51 50 50 51 53 53 51 50 52 54 54 52 49 47 46 47 48 47 47 47 48 48 48 48 45 43 44 43 41 38 36 35 31 26 25 27 30 33 32 29 27 23 20 16 11 11 14 14 15 18 20 21 22 23 24 25 25 25 25 25 25 25 24 24
27 29 31 31 32 32 33 33 34 34 35 34 34 34 36 38 40 42 44 47 49 49 48 48 48 49 52 52 51 52 53 53 51 49 49 48 48 49 48 46 46 47 48 48 46 41 39 39 40 40 39 37 36 31 25 25 30 32 31 32 32 30 28 28 26 21 17 15 15 16 18 21 24 26 27 28 28 28 28 27 26 25 24 23 24
20 23 25 27 28 29 30 31 32 33 33 33 33 35 36 37 38 41 44 46 47 47 47 48 46 47 50 53 53 53 53 53 52 50 50 50 49 49 49 47 45 45 47 47 44 41 39 40 43 43 43 41 37 32 30 32 33 31 29 29 29 28 28 29 29 28 26 23 23 21 19 22 27 30 31 30 30 29 27 26 25 24 23 23 24
16 18 20 23 24 26 27 28 29 30 31 32 33 35 36 37 38 41 43 44 45 45 46 47 47 47 48 51 53 54 54 54 54 52 51 51 50 50 50 49 47 46 47 47 44 42 41 44 46 45 44 43 40 37 36 38 35 32 30 30 29 29 28 29 31 31 30 28 27 26 22 21 24 31 34 31 27 25 24 24 25 25 26 25 25
15 16 17 19 21 22 24 26 27 27 28 30 32 34 36 38 39 41 42 43 44 44 45 46 47 48 47 49 51 53 55 56 55 54 53 52 51 50 51 51 50 48 48 48 47 44 43 45 44 41 41 43 43 41 39 40 38 32 30 31 33 32 29 29 30 29 29 26 25 27 28 27 30 35 34 28 24 24 24 25 25 26 26 26 26
Wind_Direction
173 175 172 165 161 160 162 160 161 159 158 157 158 159 161 162 164 168 170 168 165 158 146 144 144 144 139 139 143 144 145 144 145 148 153 154 151 146 142 136 128 117 107 99 97 91 73 45 35 34 23 16 14 63 142 131 119 120 114 114 110 107 106 110 113 114 112 112 113 113 112 111 113 115 117 115 111 109 109 108 105 105 105 105 104
171 174 172 167 164 163 165 164 165 164 164 162 163 164 164 166 168 171 173 175 172 168 158 149 147 149 147 146 149 151 151 150 150 149 151 153 153 150 147 141 135 124 115 107 107 112 67 31 20 20 8 11 7 30 143 146 127 124 121 122 116 112 113 115 116 116 113 114 117 119 117 112 113 116 121 120 116 112 111 110 108 104 102 106 105
169 171 171 168 166 166 168 168 168 168 169 167 167 167 168 170 172 174 175 178 177 176 169 159 154 154 157 154 153 156 156 155 153 151 152 153 157 155 152 145 139 129 124 116 117 137 47 3 354 358 356 358 351 9 142 152 136 128 129 128 121 119 119 118 117 115 112 113 119 123 120 115 112 115 124 125 118 115 113 111 109 105 106 111 110
170 168 170 168 167 168 170 171 171 172 172 170 169 169 170 173 176 179 179 180 181 182 175 167 161 159 162 160 157 160 160 159 157 154 153 155 159 157 151 145 142 138 134 127 132 163 340 336 338 340 339 336 334 359 147 148 137 135 135 134 128 125 122 120 119 117 116 118 122 125 124 117 113 115 124 126 121 118 115 111 111 110 108 105 103
171 167 170 168 168 170 172 174 174 173 174 172 170 169 170 173 177 180 183 183 182 184 179 170 167 164 163 162 160 162 161 160 158 154 153 156 159 155 151 149 152 153 148 143 154 295 325 323 322 317 318 321 327 91 154 146 139 143 141 140 135 131 127 123 123 122 119 121 127 130 129 123 119 120 125 127 123 120 116 113 112 109 97 81 72
173 168 169 168 169 172 174 176 176 174 174 174 172 172 173 174 176 180 184 184 183 183 179 173 171 168 165 163 160 161 161 160 159 157 156 157 156 154 157 160 168 173 177 224 299 312 316 311 310 308 310 310 304 158 158 150 144 146 143 145 142 138 136 130 127 125 119 118 128 136 134 129 128 126 127 127 124 121 117 115 110 100 78 52 29
175 170 169 169 171 173 175 177 177 176 176 175 174 174 176 178 178 180 182 182 181 179 178 176 174 171 168 165 161 163 163 162 162 161 159 159 158 159 167 176 182 199 255 295 308 310 309 303 302 302 309 296 194 161 160 153 147 147 146 150 149 145 142 136 130 127 122 115 126 139 139 135 135 132 128 125 124 120 115 117 110 88 51 25 360
178 173 171 171 174 174 175 178 179 178 179 179 178 178 179 180 181 180 179 179 177 174 175 177 177 175 174 171 166 167 166 165 164 163 163 163 167 171 180 190 202 234 275 294 302 301 302 300 293 296 319 167 160 160 162 155 151 151 152 155 152 148 146 140 134 133 125 118 128 140 144 142 139 135 132 127 124 121 116 119 111 70 27 7 348
179 177 173 174 176 175 176 179 181 180 181 182 182 182 182 182 182 179 175 175 175 174 176 178 179 179 178 177 173 171 171 170 166 165 168 171 179 186 195 211 234 259 280 289 292 290 297 302 283 286 45 139 157 163 167 160 158 158 156 154 152 150 151 146 141 141 128 125 135 140 146 146 143 139 136 134 131 127 122 122 90 30 13 357 345
179 180 176 176 178 176 177 180 182 183 182 185 185 185 184 183 182 180 176 175 177 178 180 181 182 183 181 177 175 175 174 174 173 172 177 184 193 203 218 238 257 269 275 278 278 280 290 294 265 286 55 142 159 164 171 166 164 161 157 155 154 154 156 153 148 143 131 134 143 143 149 146 144 143 139 140 141 137 129 114 2 357 358 347 340
179 182 179 179 181 177 179 181 183 185 184 186 187 187 185 183 183 183 180 178 180 181 181 183 183 185 184 179 178 179 179 182 183 185 189 197 208 223 243 256 264 266 267 268 266 272 278 272 257 295 44 150 162 167 174 170 167 164 161 158 156 159 162 162 155 147 137 146 150 147 154 151 146 147 149 152 152 152 158 299 326 333 339 338 335
180 183 181 182 182 179 181 182 184 187 186 187 188 188 186 183 182 182 183 180 182 183 183 184 183 184 185 184 184 185 187 191 195 199 205 212 225 238 252 258 261 258 257 261 261 265 264 255 255 276 280 160 167 172 176 173 170 169 167 163 160 164 168 168 164 157 148 155 161 153 156 159 157 155 159 170 183 192 231 293 307 320 331 333 331
181 184 182 183 183 181 183 184 185 188 189 188 189 189 187 184 180 179 181 182 183 185 187 187 186 186 188 188 189 192 194 200 207 213 219 224 235 241 247 251 252 253 251 254 256 258 254 246 247 256 226 165 171 175 178 175 173 171 170 169 165 166 171 172 171 172 166 164 170 168 166 167 166 166 174 195 215 221 247 280 295 315 331 331 331
183 184 183 184 184 183 186 187 186 189 191 189 190 191 187 184 182 180 180 182 184 187 190 191 191 192 192 193 195 199 204 208 214 219 222 226 232 233 236 238 242 249 248 248 252 251 239 232 235 237 224 172 173 175 177 178 175 171 172 173 170 168 172 175 178 184 184 178 176 180 180 177 173 177 192 211 225 231 246 262 288 313 329 332 339
186 186 184 185 184 185 188 189 189 189 192 192 191 191 189 184 184 184 184 184 186 189 191 193 195 197 198 200 202 206 208 209 213 217 218 220 220 217 221 223 231 244 243 242 246 244 230 229 229 221 222 177 175 176 178 181 179 175 175 176 174 172 176 181 185 189 191 187 184 184 183 187 186 187 201 216 237 250 252 256 284 312 322 324 330
191 189 186 187 185 187 190 192 191 190 193 195 193 193 191 187 185 185 187 188 189 191 193 195 197 199 202 204 205 205 205 205 207 208 207 207 203 201 204 208 223 237 231 225 227 226 222 225 230 224 204 175 177 179 181 184 184 181 179 179 178 177 182 188 189 189 191 187 186 189 185 192 195 196 207 215 245 262 261 259 289 315 318 316 322
196 194 191 190 187 189 192 193 193 193 194 196 196 196 194 191 188 186 186 187 188 190 192 195 197 199 201 202 201 200 200 199 199 197 195 196 196 196 197 202 217 218 203 201 203 204 210 220 233 247 201 175 181 182 184 187 188 186 182 182 183 182 187 194 195 192 196 191 186 192 188 194 200 202 211 226 250 262 271 282 302 318 321 330 342
200 199 196 194 190 190 193 195 195 195 196 197 199 198 198 196 192 190 188 187 186 187 188 190 192 193 194 194 193 192 192 193 194 194 194 197 200 201 199 205 214 193 182 187 187 191 201 220 243 261 189 173 184 187 189 190 190 190 187 184 187 187 190 199 201 198 201 198 194 198 193 195 201 199 206 229 250 261 276 293 302 309 323 326 316
205 204 202 199 194 191 193 198 198 197 197 198 200 201 201 199 198 195 192 191 188 186 185 186 186 186 187 187 188 188 190 194 197 200 202 205 206 209 208 208 216 188 176 182 182 190 201 222 252 252 162 164 185 192 192 193 194 195 192 188 191 192 194 202 209 205 203 200 200 203 198 200 205 206 211 221 248 267 277 289 293 296 316 320 301
208 208 207 206 200 196 194 198 200 200 200 199 201 203 205 203 202 202 199 197 194 191 189 188 187 187 188 189 191 193 197 200 204 207 210 212 212 214 214 212 218 200 180 184 183 195 211 222 232 202 165 166 184 194 193 194 199 200 196 193 195 197 198 206 214 209 203 207 208 206 205 207 214 225 227 226 236 251 265 274 280 288 304 313 301
209 210 210 210 206 203 199 199 201 203 204 203 202 204 208 208 206 205 205 204 202 200 197 196 196 195 196 196 198 201 204 207 209 212 214 217 217 217 217 218 219 211 191 186 186 197 215 220 216 196 178 176 182 192 193 196 205 203 199 199 199 200 203 209 216 212 203 209 211 212 215 212 216 224 228 241 238 226 238 266 275 285 291 300 296
211 211 211 212 210 209 206 204 203 204 205 206 206 204 209 211 210 210 209 209 208 208 207 206 205 205 204 204 205 206 208 212 214 216 218 219 221 222 220 220 220 218 208 194 190 199 216 221 214 210 195 184 187 192 194 200 209 204 201 204 204 205 207 210 215 217 210 207 206 217 225 222 219 222 229 252 256 239 242 264 274 279 284 298 297
210 211 212 212 213 213 212 211 209 208 207 208 210 209 210 212 211 213 214 214 213 212 212 213 213 212 212 211 212 213 212 213 217 218 221 223 225 227 224 223 222 220 215 203 196 199 212 224 219 217 210 192 191 193 197 206 213 207 205 207 208 209 211 211 213 218 220 214 210 218 229 230 224 227 235 252 264 248 244 258 270 276 287 301 304
211 210 212 213 213 215 216 216 215 213 212 212 213 213 214 214 213 213 216 218 218 217 217 217 218 218 219 219 219 220 218 218 221 221 222 225 226 227 225 223 222 220 217 209 202 202 206 218 223 222 221 206 199 196 199 209 215 214 213 215 214 213 213 213 214 218 224 224 220 221 226 232 231 234 240 251 260 249 242 254 262 269 285 299 305
214 213 214 215 215 215 217 218 217 217 216 217 217 217 218 218 219 217 217 219 221 221 221 222 223 223 224 224 224 226 225 224 226 225 222 224 225 226 225 224 222 220 218 214 208 206 208 213 222 227 225 217 211 206 202 207 214 218 220 223 222 217 217 217 218 220 224 228 228 227 229 232 237 241 245 250 254 252 247 243 247 262 279 292 296
220 220 219 219 217 217 218 218 220 220 221 221 222 222 222 221 223 223 221 221 223 223 223 224 225 225 226 226 227 228 228 227 229 229 227 226 226 224 227 226 224 222 219 217 215 211 212 214 221 228 228 225 224 218 212 209 209 214 220 226 228 225 224 222 223 225 226 229 231 233 236 235 240 244 246 247 245 252 249 233 241 262 274 283 283
228 227 224 222 220 220 221 221 223 225 225 226 226 227 227 226 225 225 225 224 225 225 224 225 226 227 227 227 228 229 230 228 228 230 230 230 230 228 230 228 223 223 220 215 216 218 215 215 220 224 229 232 234 230 223 219 213 211 216 221 226 229 230 229 228 229 229 231 232 235 241 243 245 247 247 249 245 250 248 237 248 262 268 277 275
234 232 230 229 225 224 224 224 227 228 230 230 230 231 231 231 229 228 228 227 226 228 228 227 228 228 228 228 229 230 230 230 229 229 229 230 232 231 231 230 225 225 224 218 215 220 218 216 220 223 227 231 235 237 233 231 228 223 221 220 223 227 233 235 233 234 235 236 236 237 242 246 250 253 253 251 247 251 247 237 245 256 263 271 273
242 241 238 237 234 232 230 229 231 233 234 233 233 234 235 235 234 232 232 231 229 229 230 230 230 230 229 229 229 230 230 231 231 230 229 230 233 233 230 230 232 230 229 223 215 219 222 220 223 225 227 230 232 236 236 235 235 235 234 231 230 229 233 239 239 240 241 241 241 240 242 247 250 254 257 255 249 248 244 235 241 253 259 265 272
248 248 245 244 242 240 238 237 238 238 237 237 238 239 239 240 239 237 236 235 234 231 231 232 232 232 231 231 230 230 231 231 233 232 231 232 233 236 235 232 233 233 231 226 218 219 223 222 225 228 229 231 232 234 236 236 237 238 241 242 240 238 238 241 243 245 247 248 248 246 245 247 250 252 255 256 253 247 244 244 247 251 254 262 275
250 250 250 250 246 244 244 243 242 242 241 242 244 244 244 244 244 241 238 238 238 233 233 235 236 235 234 234 233 232 233 233 233 234 233 233 233 235 239 237 231 231 234 230 223 222 224 223 226 229 231 232 233 236 238 238 239 239 240 246 246 245 245 247 248 249 251 253 255 255 252 249 250 252 254 255 256 251 248 250 250 248 248 258 274
255 255 257 255 252 251 249 247 246 245 244 245 247 248 248 248 245 242 240 241 241 238 234 234 237 239 239 239 238 235 236 236 235 235 235 235 235 234 237 239 236 234 237 235 227 226 226 225 227 230 233 234 232 237 242 242 241 241 240 245 248 248 249 251 252 253 255 255 256 259 259 257 254 254 255 256 257 254 248 247 249 248 247 256 268
260 259 260 259 259 258 254 251 248 247 246 246 248 250 250 250 247 244 243 242 243 244 241 236 234 237 240 242 242 239 238 237 236 236 236 237 237 235 235 239 241 237 239 238 231 230 231 229 229 231 235 236 234 237 244 244 241 239 238 241 247 250 250 252 254 255 257 258 258 258 259 261 260 258 257 256 256 255 250 247 249 250 249 252 253
265 263 262 262 262 260 258 255 252 251 250 249 250 251 251 251 249 246 246 245 245 245 247 245 240 236 237 239 242 242 241 239 238 237 236 237 237 236 234 236 241 241 241 240 232 231 233 231 230 232 236 239 237 237 241 244 243 241 238 236 240 246 249 252 255 257 258 259 260 259 259 260 261 261 261 259 256 254 252 249 248 250 251 248 241
267 267 266 265 263 260 258 256 255 254 252 251 251 251 251 252 251 248 246 248 248 247 247 247 245 243 239 237 238 241 243 242 243 242 240 239 237 237 237 237 240 242 242 241 235 231 230 230 229 232 238 242 242 241 242 245 246 244 241 237 237 242 246 249 252 256 260 262 261 261 261 260 259 260 261 261 259 256 254 252 249 248 250 248 244
267 267 268 266 264 261 258 254 253 252 252 252 252 251 251 251 250 248 247 247 248 250 250 248 245 243 240 237 237 239 239 240 241 241 240 240 237 236 239 238 238 239 239 239 237 234 232 232 232 234 239 243 247 246 247 248 247 244 243 242 242 246 248 248 250 253 258 262 262 263 262 259 259 260 261 260 260 259 256 254 253 250 249 248 249
269 268 268 266 265 262 259 255 251 249 249 249 250 250 250 250 249 248 247 247 247 248 250 250 248 244 240 238 240 240 237 237 238 237 237 238 237 235 237 238 236 237 239 237 238 240 239 238 238 239 240 241 246 249 250 252 249 244 245 248 250 253 252 249 250 251 255 259 260 262 261 259 259 258 259 259 259 260 260 257 255 253 252 251 249
271 269 268 266 264 261 259 256 253 250 247 246 246 246 248 249 250 249 248 247 247 248 249 251 250 247 245 244 245 245 240 236 237 237 236 237 238 238 238 239 237 237 239 237 240 244 244 243 241 242 244 244 246 248 251 254 253 247 245 248 251 254 253 251 251 252 255 258 260 261 260 260 261 257 255 257 258 258 260 261 257 254 252 252 251
270 268 268 267 265 262 259 256 254 251 249 246 244 244 246 248 249 249 248 247 246 247 248 249 250 249 248 248 248 249 247 242 238 237 237 237 240 242 242 240 238 239 242 241 241 242 244 245 241 240 246 249 248 247 249 254 256 253 248 249 254 253 251 252 253 255 258 260 262 264 263 261 261 260 255 256 259 257 256 258 258 256 253 253 253
269 267 267 268 267 265 263 260 255 253 252 249 245 244 244 246 247 247 247 246 246 246 247 248 249 251 251 251 250 250 250 248 244 240 236 236 240 244 246 244 242 242 243 242 240 240 242 244 241 240 244 248 247 244 244 247 250 253 255 257 257 253 255 259 259 257 258 259 262 264 264 262 260 260 258 257 260 259 256 254 254 255 254 254 254
269 267 266 266 266 266 266 264 261 258 256 252 249 246 245 245 246 246 247 247 247 247 248 249 249 251 252 253 253 253 252 250 248 243 235 235 239 239 240 242 242 243 242 240 239 242 244 244 244 243 243 246 246 245 246 246 247 250 254 256 255 254 259 264 264 263 260 257 258 259 261 263 262 260 258 257 259 261 260 257 254 254 254 255 255
269 268 267 266 266 267 266 266 265 262 258 255 253 249 247 246 247 248 249 250 251 251 252 253 253 253 253 253 254 254 253 250 249 245 236 232 233 232 231 232 235 239 242 240 239 242 245 245 245 244 244 246 248 249 247 245 245 244 241 248 258 262 263 261 261 263 256 249 252 259 264 265 264 261 260 261 262 263 264 261 258 256 256 256 256
270 268 268 268 267 266 266 266 266 263 260 257 255 252 251 250 251 252 253 254 255 256 257 258 257 256 254 254 254 253 252 249 246 245 240 233 230 230 233 234 233 234 238 240 240 241 244 246 246 244 242 244 249 250 243 239 241 241 239 248 260 265 265 260 256 252 247 247 255 265 268 265 261 259 260 264 263 262 264 263 259 257 257 256 256
276 274 273 273 272 270 269 268 267 266 265 262 259 257 257 257 257 256 256 257 257 257 258 257 256 254 252 251 252 251 250 248 245 243 242 237 233 233 236 239 237 232 233 238 241 243 243 244 245 242 238 240 246 248 244 241 241 239 237 244 250 253 254 253 254 251 250 255 260 263 263 257 255 255 256 258 258 259 261 260 257 256 257 257 256
281 280 279 278 276 274 273 272 271 270 269 268 265 262 261 259 258 257 255 255 254 254 253 252 252 251 248 247 248 248 248 246 244 242 242 240 236 234 236 240 240 236 235 238 240 241 242 243 244 241 236 239 242 244 246 245 240 237 234 233 236 243 246 246 255 260 259 262 261 257 253 250 252 254 253 253 253 256 259 260 262 263 262 258 255
280 279 277 275 274 271 270 269 268 267 266 265 263 263 261 259 258 257 254 253 253 252 251 252 252 251 247 245 245 245 245 245 243 243 243 241 238 234 232 234 238 240 241 241 240 240 240 242 243 240 238 240 241 243 248 246 240 236 235 234 233 239 247 244 246 257 266 270 263 253 251 251 251 249 248 251 255 260 264 268 270 270 268 263 257
279 277 274 272 271 268 264 262 260 259 257 256 255 256 256 256 255 254 253 252 253 254 255 256 255 253 249 247 247 245 244 244 243 242 242 241 239 235 233 231 234 237 241 242 241 239 239 241 242 241 241 243 241 242 243 242 241 239 237 238 237 240 247 244 238 245 265 273 265 257 256 251 245 246 250 256 263 268 271 273 273 273 273 272 268
284 281 278 276 273 270 266 262 259 256 253 249 248 248 250 251 251 251 251 250 251 253 256 258 258 255 251 249 249 247 243 243 243 241 240 240 238 235 233 232 232 233 236 238 238 235 234 236 236 237 241 244 243 241 237 237 244 245 241 240 239 239 244 245 243 243 250 264 268 260 257 255 252 254 260 267 272 275 276 276 275 275 275 276 273
294 289 286 283 278 275 272 268 264 260 256 250 246 244 245 248 249 250 250 249 251 253 254 257 257 255 252 251 249 247 244 243 243 242 240 239 238 235 233 232 231 231 233 234 233 231 231 229 229 233 239 243 242 240 240 241 244 246 244 242 241 239 241 245 244 243 246 254 260 259 260 263 262 263 268 274 277 277 275 273 273 275 274 272 271
308 298 292 287 282 278 275 272 268 264 261 256 250 245 243 244 246 247 248 248 249 251 252 253 255 254 252 249 248 247 245 242 241 241 240 239 237 235 233 232 230 230 232 233 231 230 231 232 234 237 241 244 243 242 245 246 245 245 245 244 242 239 238 241 240 242 244 246 251 256 258 259 262 269 275 276 275 272 268 270 273 276 275 274 274
322 311 300 293 285 279 276 272 270 268 266 262 256 250 245 243 243 244 247 247 247 248 249 251 252 252 251 248 246 245 244 243 242 241 239 238 237 235 232 232 231 230 232 234 233 231 234 237 238 239 241 244 246 247 248 248 245 243 243 245 245 243 241 238 238 240 240 239 246 255 259 261 265 270 274 275 272 269 269 272 274 275 275 276 277